Flag for Germany Weather past 2 weeks in Bocholt, North Rhine-Westphalia, Germany

Now
91 °F

Passing clouds.


Feels Like: 92 °F
Forecast: 67 / 87 °F
Wind: 8 mph from Southeast

Location: Niederrhein

Current Time: Jul 2, 2015 at 12:25:12 PM

Latest Report: Jul 2, 2015 at 11:50 AM


Visibility: N/A

Pressure: 30.04 "Hg

Humidity: 38%

Dew point: 63 °F

Location of BocholtLocation

Historic Weather in Bocholt — Graph

°F

Bocholt temperature yesterday

Maximum temperature yesterday: 95 °F (at 5:20 PM)
Minimum temperature yesterday: 63 °F (at 4:50 AM)
Average temperature yesterday: 83 °F

Past Weeks' High & Low Weather Summary

 TemperatureHumidityPressure
High95 °F (Jul 1, 5:20 PM)100% (Jun 18, 5:50 AM)30.27 "Hg (Jun 18, 5:50 AM)
Low50 °F (Jun 20, 4:50 AM)24% (Jul 1, 3:20 PM)29.68 "Hg (Jun 22, 7:50 PM)
Average65 °F66%30.06 "Hg
* Reported Jun 17 10:20 AM — Jul 2 10:50 AM, Bocholt, Weather by CustomWeather, © 2015

Note: Actual official high and low records may vary slightly from our data, if they occured in-between our weather recording intervals... More about our weather records

Advertising

Bocholt weather history for previous 24 hours

 ConditionsComfort  
Time TempWeatherWind HumidityBarometerVisibility
10:50 AM
Thu, Jul 2
90 °FPassing clouds.8 mph41%30.04 "HgN/A
10:20 AM88 °FPassing clouds.7 mph43%30.04 "HgN/A
9:50 AM86 °FPassing clouds.7 mph46%30.04 "HgN/A
9:20 AM84 °FPassing clouds.9 mph48%30.04 "HgN/A
8:50 AM82 °FPassing clouds.9 mph48%30.04 "HgN/A
8:20 AM81 °FPassing clouds.8 mph51%30.04 "HgN/A
7:50 AM79 °FSunny.8 mph54%30.04 "Hg10 mi
7:20 AM79 °FClear.7 mph54%30.04 "Hg10 mi
6:50 AM77 °FClear.6 mph54%30.04 "Hg10 mi
6:20 AM75 °FClear.7 mph57%30.04 "Hg10 mi
5:50 AM75 °FClear.6 mph57%30.01 "Hg10 mi
5:20 AM75 °FClear.7 mph57%30.01 "Hg10 mi
4:50 AM75 °FClear.7 mph57%30.01 "Hg10 mi
11:50 PM
Wed, Jul 1
81 °FPassing clouds.6 mph45%30.01 "HgN/A
10:50 PM81 °FPassing clouds.5 mph42%30.01 "HgN/A
10:20 PM82 °FPassing clouds.5 mph40%30.01 "HgN/A
9:50 PM84 °FPassing clouds.5 mph40%30.01 "HgN/A
9:20 PM88 °FPassing clouds.6 mph35%29.98 "HgN/A
8:50 PM90 °FPassing clouds.6 mph31%29.98 "HgN/A
8:20 PM91 °FPassing clouds.6 mph30%29.98 "HgN/A
7:50 PM93 °FPassing clouds.8 mph26%29.98 "HgN/A
7:20 PM93 °FPassing clouds.8 mph26%29.98 "HgN/A
6:50 PM93 °FPassing clouds.9 mph26%29.98 "HgN/A
6:20 PM93 °FPassing clouds.10 mph26%29.98 "HgN/A
5:50 PM95 °FPassing clouds.9 mph25%30.01 "HgN/A
5:20 PM95 °FPassing clouds.10 mph26%30.01 "HgN/A
4:50 PM93 °FPassing clouds.12 mph26%30.01 "HgN/A
4:20 PM93 °FPassing clouds.12 mph26%30.01 "HgN/A
3:50 PM93 °FPassing clouds.13 mph24%30.01 "HgN/A
3:20 PM93 °FPassing clouds.12 mph24%30.01 "HgN/A
2:50 PM93 °FPassing clouds.14 mph26%30.01 "HgN/A
2:20 PM91 °FPassing clouds.13 mph28%30.04 "HgN/A
1:50 PM91 °FPassing clouds.15 mph26%30.04 "HgN/A
1:20 PM90 °FPassing clouds.14 mph29%30.04 "HgN/A
12:50 PM88 °FPassing clouds.13 mph31%30.04 "HgN/A
12:20 PM88 °FPassing clouds.12 mph31%30.07 "HgN/A
Weather by CustomWeather, © 2015

See weather overviewHow to use our weather pages